Wind_Speed
42 43 43 45 46 49 50 52 53 53 54 55 54 53 52 51 50 50 49 48 47 47 46 46 45 44 43 42 42 42 42 42 42 42 42 42 42 43 43 43 44 44
39 40 42 45 47 50 51 53 54 54 54 54 53 52 50 50 49 48 47 46 46 45 45 44 43 42 42 41 41 41 41 41 41 41 41 41 41 42 42 42 43 43
39 41 43 46 48 50 52 53 54 54 54 53 51 50 49 49 48 46 46 45 45 44 43 43 42 42 41 41 41 41 41 41 41 41 41 41 41 41 41 41 41 41
40 43 46 49 51 52 53 53 54 54 53 52 51 50 48 48 46 46 45 44 44 43 42 42 42 41 41 41 41 41 41 40 40 40 40 40 40 40 40 40 40 40
44 47 50 51 53 54 54 54 54 53 52 51 50 49 48 47 46 45 45 44 44 43 42 42 42 42 41 41 41 40 40 39 39 39 39 39 40 40 40 40 39 39
47 51 52 53 55 55 56 55 54 53 52 51 50 49 48 47 46 45 45 44 44 43 43 42 42 42 41 41 40 39 39 38 38 38 38 38 38 38 39 38 38 37
50 53 54 55 56 57 57 57 55 54 52 51 50 50 49 48 46 45 45 44 44 43 43 42 42 41 41 40 40 39 38 37 37 37 36 36 36 36 36 36 36 35
52 53 54 55 57 58 58 58 56 55 53 52 51 50 49 48 47 46 44 44 43 43 43 42 41 41 40 40 39 38 37 36 35 35 34 34 33 34 34 34 34 33
51 52 54 56 57 59 60 59 57 55 54 53 52 51 50 48 47 45 44 44 43 43 42 41 41 40 40 39 38 37 36 35 34 33 32 32 32 32 32 32 32 32
50 52 54 57 59 61 61 60 58 56 55 54 53 52 50 48 46 45 44 43 43 42 41 41 40 39 38 38 37 36 35 34 33 32 31 31 31 31 31 31 31 32
50 53 56 59 61 63 62 61 59 57 56 55 54 52 50 47 45 44 43 43 42 41 41 40 39 38 37 36 36 35 34 33 32 31 31 31 30 30 30 31 31 31
51 55 59 62 64 65 64 62 60 58 56 55 54 52 49 46 44 43 43 42 42 41 40 39 38 37 36 35 34 33 33 32 32 31 31 30 30 30 30 30 30 31
53 57 61 65 67 67 66 64 60 58 57 55 54 51 48 45 43 43 42 41 40 40 39 38 37 36 35 34 33 33 32 32 32 31 31 30 30 29 29 29 29 29
56 60 63 66 69 69 67 65 61 58 57 55 53 50 47 44 43 42 41 40 39 38 37 37 36 36 35 34 33 33 33 33 32 31 31 30 29 28 27 27 27 26
60 61 64 68 71 70 69 66 62 59 57 54 51 48 45 44 42 41 40 38 37 36 36 35 35 35 34 34 34 34 33 33 32 30 29 28 27 26 26 25 25 25
62 63 66 70 72 72 70 66 62 59 56 53 50 46 44 42 41 40 38 37 36 35 34 33 33 33 34 34 34 34 33 32 30 29 29 28 27 26 26 25 25 25
63 65 68 72 73 73 71 67 61 57 54 51 48 45 43 41 40 38 37 35 34 33 32 31 31 32 33 33 34 33 32 30 29 29 28 28 27 26 25 25 24 24
65 67 70 73 74 73 70 65 60 55 52 49 46 43 42 40 39 37 35 34 33 32 30 30 30 31 32 32 31 30 29 28 28 28 27 27 26 25 24 24 24 24
67 69 71 73 73 72 69 63 57 53 49 46 44 42 40 39 37 35 34 33 31 30 29 29 29 30 30 30 28 27 26 26 26 26 26 25 24 24 23 24 24 26
68 70 72 72 71 70 67 60 54 50 47 44 42 40 39 38 36 34 33 31 30 29 28 28 29 29 28 27 25 25 25 24 24 24 24 24 23 23 24 25 26 27
69 70 71 71 70 69 64 56 51 48 45 43 41 39 38 36 34 33 31 30 28 28 28 28 28 27 26 24 23 23 23 23 23 23 23 24 24 25 26 27 27 27
69 70 70 69 69 66 59 52 48 45 43 41 39 38 36 34 33 31 30 28 27 27 27 27 26 25 23 22 22 22 22 22 22 22 23 24 25 26 27 27 27 27
68 69 68 68 67 61 54 49 45 43 41 40 38 37 35 32 31 30 28 27 26 25 26 25 24 23 21 21 21 20 21 21 22 22 23 25 26 27 28 28 29 28
67 67 67 66 62 56 50 46 43 41 40 38 37 35 33 31 29 28 26 25 25 25 24 24 22 21 20 20 20 20 20 21 22 23 24 25 26 27 28 29 29 28
66 66 65 62 56 50 46 43 41 39 38 37 35 34 31 30 28 26 25 24 24 24 23 22 20 19 19 19 19 19 20 21 22 23 24 25 26 27 28 29 29 28
65 64 61 56 51 46 43 41 39 38 36 35 34 32 30 28 27 25 23 23 23 23 22 21 19 18 18 18 18 19 20 21 22 23 24 25 26 26 28 28 29 29
Wind_Direction
316 316 316 316 315 314 312 311 309 309 308 308 309 310 310 309 308 306 305 304 303 303 303 302 301 300 298 297 295 293 291 289 287 286 284 283 281 279 278 276 274 272
315 317 319 320 319 318 316 313 311 310 309 309 310 310 310 308 307 306 305 305 305 305 305 304 303 302 300 299 297 295 293 291 289 288 287 286 284 282 281 279 278 276
319 322 325 326 325 323 321 318 316 313 312 312 311 310 309 307 307 306 307 307 307 307 307 306 305 303 302 300 298 296 295 294 293 291 290 289 287 285 284 282 281 280
325 328 329 329 328 327 325 322 320 317 314 313 311 310 309 308 308 308 309 310 309 309 309 308 306 305 303 301 299 298 297 296 295 294 293 292 290 289 287 286 285 283
328 330 330 330 329 328 326 324 322 318 315 314 312 310 309 309 310 311 312 312 312 311 311 309 308 306 304 302 301 300 298 298 297 296 295 294 293 292 291 289 288 286
328 329 328 328 328 327 326 325 323 320 317 315 313 312 311 311 312 313 314 314 314 313 312 310 308 306 305 303 302 301 300 299 299 298 297 297 296 295 293 291 290 288
327 327 326 326 327 327 326 326 324 321 318 316 315 313 313 313 314 315 315 316 315 314 312 310 308 306 305 304 303 302 302 302 302 301 300 299 298 296 295 293 292 291
325 326 326 326 326 327 327 326 324 322 319 317 316 315 315 315 315 316 316 316 315 314 312 310 308 307 306 305 305 305 305 305 305 304 303 302 300 298 297 296 295 294
326 327 327 328 328 328 327 326 324 322 320 319 318 317 317 317 316 317 317 316 315 313 311 310 309 308 308 308 308 308 308 308 307 306 305 303 301 300 300 299 299 297
328 329 330 330 331 330 329 327 324 322 321 320 319 319 318 317 317 317 317 316 315 313 312 311 310 310 310 311 311 310 310 310 310 309 307 305 304 304 303 302 301 300
328 331 333 333 333 332 330 327 325 323 322 321 320 319 319 318 317 318 318 316 315 314 313 313 312 312 312 312 312 312 312 312 311 310 309 308 307 306 305 304 302 301
327 330 333 334 334 333 331 328 325 323 322 321 321 320 318 318 318 318 318 317 315 315 314 314 313 313 313 314 314 314 314 314 313 312 311 310 309 308 306 305 303 301
325 328 330 332 333 332 331 328 325 324 322 321 321 319 318 319 319 319 318 317 316 316 316 315 314 315 315 316 316 315 315 315 314 313 312 312 311 309 308 306 304 302
324 325 328 330 331 331 330 328 325 323 322 321 320 319 319 319 319 318 317 317 317 317 316 315 316 316 317 317 317 317 317 316 315 315 315 315 314 313 311 309 307 305
322 324 326 328 329 329 329 327 325 323 322 321 320 319 319 319 319 318 317 317 317 317 316 317 318 318 318 318 319 319 318 318 320 321 321 321 321 320 318 316 313 311
321 323 324 326 327 327 327 326 324 323 322 321 320 319 319 319 318 317 317 318 317 317 318 319 318 318 318 319 320 320 322 324 327 328 329 329 329 328 327 325 324 323
320 322 322 324 325 326 326 325 323 322 322 321 320 319 319 318 317 317 317 318 317 318 319 320 318 318 319 320 322 324 328 331 334 335 336 336 336 336 336 336 338 338
320 320 320 322 324 325 325 324 322 322 322 320 319 319 318 317 317 317 317 317 318 319 320 319 319 319 320 322 326 330 334 337 339 340 341 342 342 343 345 347 350 351
318 318 319 321 323 324 324 322 322 322 321 320 319 318 317 316 316 317 317 317 318 319 319 320 320 320 323 327 332 336 340 343 345 346 348 348 349 352 355 358 1 3
315 316 318 320 322 323 322 321 321 321 321 319 318 316 315 315 315 316 317 317 318 319 320 321 322 323 328 333 338 342 345 348 351 354 355 357 358 1 4 7 9 11
313 315 317 319 321 322 320 320 320 320 320 318 316 315 315 315 315 316 316 317 318 319 321 322 324 327 333 339 343 347 350 353 357 1 2 3 5 7 9 10 12 13
312 314 316 319 320 319 318 319 320 320 319 317 315 314 314 314 315 315 316 317 319 320 321 323 326 332 338 343 348 351 354 358 2 6 7 9 10 11 11 11 12 13
312 314 316 318 319 317 317 319 319 319 317 315 314 313 313 313 314 314 315 317 319 320 321 325 330 337 342 347 351 355 359 2 6 10 12 14 15 15 14 13 12 13
312 314 316 317 316 315 317 319 319 318 316 314 313 313 313 313 314 314 316 318 319 321 324 329 336 341 346 350 354 358 2 6 9 12 14 15 16 16 14 13 13 12
312 314 315 314 313 315 317 318 318 317 315 313 313 313 313 314 314 316 318 320 321 323 328 334 340 344 348 352 356 360 4 8 10 11 12 13 14 14 13 12 12 11
311 313 313 312 312 315 318 318 317 316 314 313 313 313 314 315 316 319 321 322 323 326 331 338 343 346 350 353 356 0 3 7 8 10 11 12 13 13 12 11 11 9
Height
10879 10878 10875 10872 10868 10864 10861 10857 10853 10849 10844 10840 10836 10832 10828 10825 10821 10818 10814 10811 10808 10804 10801 10797 10794 10791 10788 10785 10783 10780 10778 10776 10774 10772 10770 10768 10766 10764 10762 10761 10759 10758
10877 10875 10873 10869 10865 10861 10857 10853 10848 10844 10840 10835 10831 10827 10824 10820 10817 10813 10810 10806 10803 10799 10795 10791 10788 10785 10782 10780 10777 10775 10773 10770 10768 10766 10764 10761 10759 10757 10755 10754 10752 10751
10874 10872 10869 10865 10861 10857 10853 10848 10844 10840 10835 10831 10827 10823 10819 10816 10813 10809 10805 10802 10798 10794 10790 10786 10783 10780 10777 10775 10772 10769 10767 10764 10762 10760 10757 10755 10753 10751 10749 10747 10745 10743
10871 10868 10864 10861 10857 10853 10848 10844 10839 10835 10831 10827 10823 10819 10815 10811 10808 10804 10801 10797 10793 10789 10785 10782 10778 10775 10772 10770 10767 10764 10762 10759 10757 10754 10752 10749 10746 10744 10742 10740 10739 10737
10868 10864 10860 10857 10853 10849 10844 10840 10835 10830 10826 10822 10818 10814 10810 10807 10803 10799 10795 10791 10788 10784 10781 10777 10774 10771 10768 10765 10762 10760 10757 10755 10752 10749 10746 10743 10740 10737 10735 10734 10732 10730
10865 10861 10857 10853 10849 10845 10841 10836 10831 10826 10822 10818 10814 10810 10806 10802 10798 10795 10790 10786 10782 10779 10776 10772 10769 10766 10763 10760 10758 10756 10753 10750 10748 10745 10741 10738 10735 10732 10729 10727 10726 10725
10862 10858 10854 10850 10846 10841 10836 10832 10827 10822 10818 10813 10809 10805 10801 10797 10794 10790 10786 10782 10778 10775 10771 10768 10765 10762 10759 10756 10754 10751 10749 10746 10743 10740 10737 10733 10730 10727 10724 10722 10720 10719
10859 10855 10851 10846 10842 10837 10832 10827 10822 10818 10813 10809 10805 10801 10797 10793 10789 10785 10781 10777 10774 10771 10768 10764 10761 10758 10755 10752 10749 10746 10744 10741 10738 10735 10732 10729 10725 10722 10719 10717 10715 10713
10856 10852 10847 10842 10838 10833 10827 10822 10817 10813 10809 10805 10801 10796 10792 10788 10784 10780 10777 10773 10770 10767 10764 10761 10757 10754 10751 10747 10744 10742 10739 10736 10734 10731 10727 10724 10721 10718 10715 10712 10710 10708
10852 10848 10843 10838 10833 10828 10823 10817 10813 10808 10804 10800 10796 10792 10788 10784 10780 10776 10772 10769 10766 10763 10759 10756 10753 10750 10747 10743 10740 10737 10734 10732 10729 10726 10723 10720 10717 10714 10711 10708 10705 10702
10848 10844 10839 10834 10828 10823 10818 10813 10808 10803 10799 10795 10791 10787 10783 10780 10776 10772 10768 10765 10762 10758 10755 10752 10749 10746 10743 10740 10736 10733 10730 10728 10725 10722 10719 10716 10713 10710 10706 10703 10700 10698
10844 10840 10835 10829 10824 10819 10814 10809 10804 10799 10795 10791 10787 10783 10779 10776 10772 10768 10765 10761 10758 10754 10751 10748 10744 10742 10739 10736 10733 10730 10727 10724 10721 10718 10715 10712 10709 10706 10702 10699 10696 10693
10840 10835 10830 10825 10820 10815 10809 10804 10799 10795 10791 10787 10783 10779 10775 10771 10768 10764 10761 10758 10754 10751 10747 10744 10740 10737 10735 10732 10729 10726 10723 10720 10717 10714 10711 10708 10704 10701 10698 10695 10692 10690
10835 10830 10826 10821 10816 10810 10805 10800 10796 10791 10787 10782 10779 10775 10771 10767 10764 10761 10758 10754 10751 10747 10744 10740 10737 10733 10730 10728 10725 10723 10720 10717 10713 10710 10706 10703 10700 10697 10694 10691 10688 10685
10830 10825 10821 10816 10811 10806 10801 10797 10792 10787 10783 10778 10774 10771 10767 10763 10760 10757 10754 10751 10748 10745 10741 10737 10733 10730 10727 10724 10721 10719 10716 10713 10709 10705 10701 10698 10695 10692 10689 10686 10684 10681
10825 10821 10816 10812 10807 10802 10797 10793 10788 10783 10778 10774 10770 10767 10763 10760 10757 10754 10751 10748 10745 10742 10739 10735 10731 10727 10724 10721 10718 10715 10712 10708 10704 10700 10697 10693 10690 10688 10685 10682 10680 10677
10821 10816 10812 10807 10803 10798 10793 10788 10783 10779 10774 10770 10767 10764 10760 10757 10754 10751 10748 10745 10742 10739 10736 10732 10729 10725 10722 10718 10715 10711 10708 10704 10700 10697 10694 10690 10687 10685 10682 10680 10677 10675
10817 10812 10808 10803 10799 10794 10788 10783 10779 10775 10771 10767 10764 10760 10757 10754 10751 10748 10745 10742 10739 10736 10733 10730 10727 10723 10720 10716 10713 10709 10705 10702 10698 10695 10692 10689 10686 10683 10680 10678 10675 10672
10813 10809 10804 10800 10795 10789 10784 10780 10775 10771 10767 10764 10761 10758 10754 10751 10748 10745 10742 10739 10736 10733 10731 10728 10725 10721 10718 10714 10711 10707 10704 10700 10697 10694 10691 10687 10684 10682 10679 10676 10674 10671
10809 10805 10801 10796 10791 10785 10781 10776 10772 10768 10764 10761 10758 10755 10751 10748 10745 10742 10739 10736 10734 10731 10728 10726 10723 10719 10716 10712 10709 10706 10703 10700 10696 10693 10690 10687 10684 10681 10678 10675 10673 10670
10806 10801 10796 10792 10787 10782 10777 10773 10769 10765 10762 10758 10755 10752 10749 10745 10742 10739 10736 10734 10731 10729 10726 10723 10720 10717 10714 10711 10708 10705 10702 10699 10696 10693 10689 10686 10683 10680 10677 10674 10672 10670
10802 10798 10793 10787 10783 10778 10774 10770 10766 10762 10759 10756 10753 10750 10746 10743 10740 10737 10734 10732 10729 10727 10724 10722 10719 10716 10712 10709 10707 10704 10701 10698 10695 10692 10689 10686 10683 10679 10677 10674 10672 10669
10798 10794 10789 10784 10779 10775 10771 10767 10763 10760 10756 10753 10750 10747 10744 10741 10738 10735 10732 10730 10728 10725 10723 10720 10717 10714 10711 10708 10706 10703 10700 10697 10694 10691 10689 10685 10682 10679 10677 10674 10671 10669
10794 10790 10785 10780 10775 10772 10768 10764 10760 10757 10753 10750 10747 10745 10742 10739 10736 10733 10731 10728 10726 10724 10721 10718 10715 10712 10710 10707 10705 10702 10699 10696 10694 10691 10688 10685 10682 10679 10676 10673 10671 10668
10789 10785 10780 10776 10772 10768 10764 10760 10757 10754 10750 10747 10745 10742 10739 10737 10734 10731 10729 10726 10724 10721 10719 10716 10713 10711 10708 10706 10704 10701 10699 10696 10693 10690 10687 10685 10682 10679 10676 10673 10670 10668
10784 10780 10776 10772 10769 10765 10761 10757 10754 10751 10748 10745 10742 10740 10737 10734 10732 10729 10727 10724 10722 10719 10716 10714 10712 10709 10707 10705 10703 10700 10698 10695 10692 10690 10687 10684 10681 10679 10676 10673 10670 10667